Gassville, AR

8:36 PM CST on February 24, 2017 (GMT -0600)
Baxter County Regional

Weather History for KBPK - November, 2012

Change the Weather History Date:

Friday, November 2, 2012

  Actual Average (KFLP) Record (KFLP)
Temperature  
Mean Temperature 58 °F -  
Max Temperature 73 °F 63 °F 82 °F (2016)
Min Temperature 45 °F 44 °F 26 °F (2006)
Degree Days  
Heating Degree Days 6    
Growing Degree Days 8 (Base 50)    
Moisture  
Dew Point 43 °F    
Average Humidity 58    
Maximum Humidity 93    
Minimum Humidity 37    
Precipitation  
Precipitation 0.00 in - - ()
Sea Level Pressure  
Sea Level Pressure 29.95 in    
Wind  
Wind Speed 4 mph (ESE)    
Max Wind Speed 9 mph    
Max Gust Speed -    
Visibility 10 miles    
Events      
Averages and records for this station are not official NWS values.
T = Trace of Precipitation, MM = Missing Value Source: NWS Daily Summary

Daily Weather History Graph

Daily Weather History Graph

Search for Another Location

Airport or City:

Trip Planner

Search our weather history database for the weather conditions in past years. The results will help you decide how hot, cold, wet, or windy it might be!

Date:

Astronomy

Nov. 02, 2012 Rise Set
Actual Time 7:34 AM CDT 6:11 PM CDT
Civil Twilight 7:07 AM CDT 6:38 PM CDT
Nautical Twilight 6:37 AM CDT 7:09 PM CDT
Astronomical Twilight 6:07 AM CDT 7:39 PM CDT
Moon 9:02 PM CDT (11/2) 10:51 AM CDT (11/2)
Length of Visible Light 11h 30m
Length of Day
10h 37m
Waning Gibbous, 87% of the Moon is Illuminated
Nov 2
Waning Gibbous
Nov 6
Last Quarter
Nov 13
New
Nov 20
First Quarter
Nov 28
Full

Hourly Weather History & Observations

Time (CDT) Temp. Dew Point Humidity Pressure Visibility Wind Dir Wind Speed Gust Speed Precip Events Conditions
12:53 AM 57.0 °F 39.9 °F 53% 29.92 in 10.0 mi SW 3.5 mph - N/A   Clear
1:53 AM 51.1 °F 41.0 °F 68% 29.92 in 10.0 mi Calm Calm - N/A   Clear
2:53 AM 51.1 °F 41.0 °F 68% 29.93 in 10.0 mi Calm Calm - N/A   Clear
3:53 AM 51.1 °F 42.1 °F 71% 29.93 in 10.0 mi Calm Calm - N/A   Clear
4:53 AM 46.9 °F 42.1 °F 83% 29.93 in 10.0 mi Calm Calm - N/A   Clear
5:53 AM 46.9 °F 43.0 °F 86% 29.94 in 10.0 mi Calm Calm - N/A   Clear
6:53 AM 45.0 °F 43.0 °F 93% 29.96 in 10.0 mi Calm Calm - N/A   Clear
7:53 AM 48.9 °F 42.1 °F 77% 29.97 in 9.0 mi ENE 3.5 mph - N/A   Clear
8:53 AM 52.0 °F 42.1 °F 69% 30.00 in 9.0 mi ENE 3.5 mph - N/A   Clear
9:53 AM 55.0 °F 42.1 °F 62% 30.01 in 9.0 mi East 5.8 mph - N/A   Clear
10:53 AM 61.0 °F 42.1 °F 50% 30.01 in 9.0 mi ENE 5.8 mph - N/A   Clear
11:53 AM 64.9 °F 44.1 °F 47% 30.00 in 10.0 mi ESE 3.5 mph - N/A   Clear
12:53 PM 68.0 °F 44.1 °F 42% 29.96 in 10.0 mi Variable 4.6 mph - N/A   Clear
1:53 PM 71.1 °F 44.1 °F 38% 29.95 in 10.0 mi Variable 6.9 mph - N/A   Clear
2:53 PM 72.0 °F 44.1 °F 37% 29.92 in 10.0 mi ESE 5.8 mph - N/A   Clear
3:53 PM 72.0 °F 45.0 °F 38% 29.91 in 10.0 mi ESE 8.1 mph - N/A   Clear
4:53 PM 71.1 °F 45.0 °F 39% 29.91 in 10.0 mi ESE 9.2 mph - N/A   Clear
5:53 PM 66.9 °F 45.0 °F 45% 29.91 in 9.0 mi East 8.1 mph - N/A   Clear
6:53 PM 64.9 °F 45.0 °F 48% 29.93 in 10.0 mi ESE 6.9 mph - N/A   Clear
7:53 PM 63.0 °F 45.0 °F 52% 29.93 in 9.0 mi ESE 8.1 mph - N/A   Clear
8:53 PM 61.0 °F 45.0 °F 56% 29.94 in 9.0 mi ESE 9.2 mph - N/A   Clear
9:53 PM 60.1 °F 44.1 °F 55% 29.94 in 9.0 mi ESE 8.1 mph - N/A   Clear
10:53 PM 57.9 °F 43.0 °F 58% 29.95 in 9.0 mi East 5.8 mph - N/A   Clear
11:53 PM 55.9 °F 43.0 °F 62% 29.95 in 9.0 mi East 5.8 mph - N/A   Clear